TimeCST,TemperatureF,Dew PointF,Humidity,Sea Level PressureIn,VisibilityMPH,Wind Direction,Wind SpeedMPH,Gust SpeedMPH,PrecipitationIn,Events,Conditions,WindDirDegrees,DateUTC
12:15 AM,28.4,28.4,100,30.35,0.2,SW,3.5,-,N/A,Fog,Light Freezing Fog,220,2013-12-26 06:15:00
12:35 AM,28.4,28.4,100,30.35,0.2,SW,3.5,-,N/A,Fog,Light Freezing Fog,220,2013-12-26 06:35:00
12:55 AM,26.6,26.6,100,30.35,0.2,South,5.8,-,N/A,Fog,Light Freezing Fog,190,2013-12-26 06:55:00
1:15 AM,26.6,26.6,100,30.35,0.2,South,4.6,-,N/A,Fog,Light Freezing Fog,180,2013-12-26 07:15:00
1:35 AM,26.6,26.6,100,30.34,0.2,South,4.6,-,N/A,Fog,Light Freezing Fog,180,2013-12-26 07:35:00
1:55 AM,26.6,26.6,100,30.34,1.5,South,4.6,-,N/A,,Scattered Clouds,180,2013-12-26 07:55:00
2:15 AM,26.6,26.6,100,30.35,1.5,South,3.5,-,N/A,,Mist,180,2013-12-26 08:15:00
2:35 AM,26.6,26.6,100,30.35,1.5,South,4.6,-,N/A,,Scattered Clouds,180,2013-12-26 08:35:00
2:55 AM,26.6,26.6,100,30.35,1.2,South,3.5,-,N/A,,Overcast,170,2013-12-26 08:55:00
3:15 AM,26.6,26.6,100,30.35,0.2,South,3.5,-,N/A,Fog,Light Freezing Fog,190,2013-12-26 09:15:00
3:35 AM,26.6,26.6,100,30.35,0.2,Calm,Calm,-,N/A,Fog,Light Freezing Fog,0,2013-12-26 09:35:00
3:55 AM,24.8,23.0,93,30.34,0.2,SSE,3.5,-,N/A,Fog,Light Freezing Fog,160,2013-12-26 09:55:00
4:15 AM,23.0,23.0,100,30.34,0.2,SSE,3.5,-,N/A,Fog,Light Freezing Fog,160,2013-12-26 10:15:00
4:35 AM,23.0,23.0,100,30.34,0.2,Calm,Calm,-,N/A,Fog,Light Freezing Fog,0,2013-12-26 10:35:00
4:55 AM,23.0,23.0,100,30.34,0.2,Calm,Calm,-,N/A,Fog,Light Freezing Fog,0,2013-12-26 10:55:00
5:15 AM,23.0,21.2,93,30.34,0.2,Calm,Calm,-,N/A,Fog,Light Freezing Fog,0,2013-12-26 11:15:00
5:35 AM,21.2,21.2,100,30.34,0.2,SSE,3.5,-,N/A,Fog,Light Freezing Fog,160,2013-12-26 11:35:00
5:55 AM,23.0,21.2,93,30.34,0.2,SSE,4.6,-,N/A,Fog,Light Freezing Fog,160,2013-12-26 11:55:00
6:15 AM,26.6,24.8,93,30.34,2.0,South,4.6,-,N/A,,Mostly Cloudy,180,2013-12-26 12:15:00
6:35 AM,26.6,26.6,100,30.35,2.0,Calm,Calm,-,N/A,,Overcast,0,2013-12-26 12:35:00
6:55 AM,23.0,23.0,100,30.36,1.8,Calm,Calm,-,N/A,,Overcast,0,2013-12-26 12:55:00
7:15 AM,26.6,24.8,93,30.35,2.0,SSE,3.5,-,N/A,,Overcast,160,2013-12-26 13:15:00
7:35 AM,26.6,24.8,93,30.35,1.2,South,4.6,-,N/A,,Mostly Cloudy,170,2013-12-26 13:35:00
7:55 AM,26.6,26.6,100,30.36,2.0,South,3.5,-,N/A,,Clear,180,2013-12-26 13:55:00
8:15 AM,28.4,26.6,93,30.36,2.5,South,3.5,-,N/A,,Clear,170,2013-12-26 14:15:00
8:35 AM,28.4,28.4,100,30.36,2.5,South,4.6,-,N/A,,Clear,190,2013-12-26 14:35:00
8:55 AM,30.2,30.2,100,30.36,2.5,South,5.8,-,N/A,,Clear,180,2013-12-26 14:55:00
9:15 AM,32.0,32.0,100,30.36,3.0,SSW,6.9,-,N/A,,Clear,200,2013-12-26 15:15:00
9:35 AM,32.0,32.0,100,30.36,4.0,South,6.9,-,N/A,,Clear,190,2013-12-26 15:35:00
9:55 AM,33.8,33.8,100,30.36,7.0,South,8.1,-,N/A,,Clear,190,2013-12-26 15:55:00
10:15 AM,33.8,33.8,100,30.36,10.0,South,8.1,-,N/A,,Clear,190,2013-12-26 16:15:00
10:35 AM,37.4,33.8,87,30.36,10.0,South,8.1,-,N/A,,Clear,190,2013-12-26 16:35:00
10:55 AM,37.4,33.8,87,30.35,10.0,South,10.4,-,N/A,,Clear,190,2013-12-26 16:55:00
11:15 AM,42.8,30.2,61,30.35,10.0,SSW,10.4,-,N/A,,Clear,210,2013-12-26 17:15:00
11:35 AM,42.8,30.2,61,30.35,10.0,South,10.4,-,N/A,,Clear,190,2013-12-26 17:35:00
11:55 AM,44.6,28.4,53,30.34,10.0,SW,12.7,-,N/A,,Clear,220,2013-12-26 17:55:00
12:15 PM,44.6,28.4,53,30.33,10.0,SSW,10.4,-,N/A,,Clear,200,2013-12-26 18:15:00
12:35 PM,46.4,26.6,46,30.32,10.0,SSW,12.7,-,N/A,,Clear,200,2013-12-26 18:35:00
12:55 PM,46.4,28.4,50,30.32,10.0,SSW,11.5,-,N/A,,Clear,210,2013-12-26 18:55:00
1:15 PM,46.4,28.4,50,30.31,10.0,SW,12.7,-,N/A,,Clear,230,2013-12-26 19:15:00
1:35 PM,46.4,28.4,50,30.30,10.0,SSW,13.8,-,N/A,,Clear,210,2013-12-26 19:35:00
1:55 PM,46.4,28.4,50,30.29,10.0,SSW,13.8,19.6,N/A,,Clear,210,2013-12-26 19:55:00
2:15 PM,48.2,26.6,43,30.28,10.0,SW,13.8,-,N/A,,Clear,220,2013-12-26 20:15:00
2:35 PM,50.0,24.8,37,30.28,10.0,SW,12.7,-,N/A,,Clear,220,2013-12-26 20:35:00
2:55 PM,50.0,26.6,40,30.28,10.0,SW,13.8,-,N/A,,Clear,220,2013-12-26 20:55:00
3:15 PM,50.0,24.8,37,30.28,10.0,SW,12.7,-,N/A,,Clear,230,2013-12-26 21:15:00
3:35 PM,48.2,26.6,43,30.27,10.0,SSW,11.5,18.4,N/A,,Clear,210,2013-12-26 21:35:00
3:55 PM,48.2,26.6,43,30.27,10.0,SSW,12.7,-,N/A,,Clear,210,2013-12-26 21:55:00
4:15 PM,46.4,26.6,46,30.26,10.0,SSW,10.4,17.3,N/A,,Clear,200,2013-12-26 22:15:00
4:35 PM,44.6,28.4,53,30.26,10.0,SSW,11.5,-,N/A,,Clear,200,2013-12-26 22:35:00
4:55 PM,42.8,28.4,57,30.27,10.0,SSW,9.2,-,N/A,,Clear,200,2013-12-26 22:55:00
5:15 PM,41.0,28.4,61,30.26,10.0,South,9.2,-,N/A,,Clear,190,2013-12-26 23:15:00
5:35 PM,41.0,28.4,61,30.27,10.0,SSW,9.2,-,N/A,,Clear,200,2013-12-26 23:35:00
5:55 PM,39.2,28.4,65,30.27,10.0,SSW,8.1,-,N/A,,Clear,200,2013-12-26 23:55:00
6:15 PM,39.2,28.4,65,30.27,10.0,South,8.1,-,N/A,,Clear,190,2013-12-27 00:15:00
6:35 PM,37.4,28.4,70,30.28,10.0,SSW,6.9,-,N/A,,Clear,200,2013-12-27 00:35:00
6:55 PM,37.4,28.4,70,30.28,10.0,South,6.9,-,N/A,,Clear,190,2013-12-27 00:55:00
7:15 PM,37.4,28.4,70,30.29,10.0,South,6.9,-,N/A,,Clear,190,2013-12-27 01:15:00
7:35 PM,35.6,26.6,70,30.29,10.0,SSW,8.1,-,N/A,,Clear,200,2013-12-27 01:35:00
7:55 PM,35.6,26.6,70,30.29,10.0,South,6.9,-,N/A,,Clear,190,2013-12-27 01:55:00
8:15 PM,35.6,26.6,70,30.30,10.0,South,8.1,-,N/A,,Clear,190,2013-12-27 02:15:00
8:35 PM,35.6,26.6,70,30.30,10.0,South,9.2,-,N/A,,Clear,190,2013-12-27 02:35:00
8:55 PM,33.8,26.6,75,30.31,10.0,SSW,6.9,-,N/A,,Clear,200,2013-12-27 02:55:00
9:15 PM,35.6,26.6,70,30.31,10.0,South,9.2,-,N/A,,Clear,190,2013-12-27 03:15:00
9:35 PM,35.6,26.6,70,30.32,10.0,SSW,6.9,-,N/A,,Clear,200,2013-12-27 03:35:00
9:55 PM,33.8,26.6,75,30.32,10.0,SSW,6.9,-,N/A,,Clear,200,2013-12-27 03:55:00
10:15 PM,33.8,26.6,75,30.33,10.0,SSW,5.8,-,N/A,,Clear,200,2013-12-27 04:15:00
10:35 PM,33.8,26.6,75,30.33,10.0,SSW,5.8,-,N/A,,Clear,210,2013-12-27 04:35:00
10:55 PM,32.0,26.6,80,30.33,10.0,SSW,9.2,-,N/A,,Clear,210,2013-12-27 04:55:00
11:15 PM,32.0,26.6,80,30.33,10.0,SSW,8.1,-,N/A,,Clear,210,2013-12-27 05:15:00
11:35 PM,32.0,26.6,80,30.33,10.0,SSW,8.1,-,N/A,,Clear,210,2013-12-27 05:35:00
11:55 PM,32.0,26.6,80,30.34,10.0,SSW,5.8,-,N/A,,Clear,210,2013-12-27 05:55:00